Weather History for Monterey, CA

Change the Weather History Date:

Wednesday, July 16, 2014

  Actual Average Record
Temperature  
Mean Temperature 67 °F 60 °F  
Max Temperature 74 °F 67 °F 74 °F (2014)
Min Temperature 59 °F 54 °F 51 °F (2002)
Degree Days  
Heating Degree Days 0    
Month to date heating degree days 55  
Since 1 June heating degree days 167  
Since 1 July heating degree days 55  
Cooling Degree Days 2    
Month to date cooling degree days 4  
Year to date cooling degree days 47  
Since 1 June cooling degree days 5  
Growing Degree Days 16 (Base 50)    
Moisture  
Dew Point 59 °F    
Average Humidity 81    
Maximum Humidity 100    
Minimum Humidity 61    
Precipitation  
Precipitation 0.01 in - 0.01 in (2000)
Month to date precipitation 0.01  
Year to date precipitation 7.40  
Since 1 July precipitation 0.01  
Sea Level Pressure  
Sea Level Pressure 30.05 in    
Wind  
Wind Speed 6 mph (West)    
Max Wind Speed 21 mph    
Max Gust Speed 28 mph    
Visibility 8 miles    
Events Rain    
T = Trace of Precipitation, MM = Missing Value Source: NWS Daily Summary

Daily Weather History Graph

Daily Weather History Graph

Search for Another Location

Airport:

Trip Planner

Search our weather history database for the weather conditions in past years. The results will help you decide how hot, cold, wet, or windy it might be!

Date:

Astronomy

Jul. 16, 2014 Rise Set
Actual Time 6:01 AM PDT 8:25 PM PDT
Civil Twilight 5:31 AM PDT 8:54 PM PDT
Nautical Twilight 4:55 AM PDT 9:31 PM PDT
Astronomical Twilight 4:14 AM PDT 10:11 PM PDT
Moon 11:22 PM PDT (7/16) 11:02 AM PDT (7/16)
Length of Visible Light 15h 23m
Length of Day
14h 23m
Waning Gibbous, 75% of the Moon is Illuminated
Jul 16
Waning Gibbous
Jul 18
Last Quarter
Jul 26
New
Aug 3
First Quarter
Aug 10
Full

Hourly Weather History & Observations

Time (PDT) Temp. Dew Point Humidity Pressure Visibility Wind Dir Wind Speed Gust Speed Precip Events Conditions
12:54 AM 62.1 °F 59.0 °F 90% 30.04 in 10.0 mi NNE 3.5 mph - N/A   Overcast
1:54 AM 62.1 °F 60.1 °F 93% 30.04 in 9.0 mi NE 3.5 mph - N/A   Overcast
2:02 AM 62.6 °F 60.8 °F 94% 30.00 in 10.0 mi Calm Calm - N/A   Overcast
2:54 AM 63.0 °F 59.0 °F 87% 30.04 in 10.0 mi Calm Calm - N/A   Overcast
3:27 AM 62.6 °F 59.0 °F 88% 30.01 in 8.0 mi Calm Calm - N/A   Overcast
3:54 AM 62.1 °F 59.0 °F 90% 30.04 in 8.0 mi Calm Calm - N/A   Overcast
4:54 AM 62.1 °F 59.0 °F 90% 30.05 in 10.0 mi Calm Calm - N/A   Overcast
5:54 AM 61.0 °F 59.0 °F 93% 30.06 in 5.0 mi Calm Calm - N/A   Overcast
6:39 AM 62.6 °F 60.8 °F 94% 30.03 in 3.0 mi Calm Calm - N/A   Overcast
6:46 AM 60.8 °F 60.8 °F 100% 30.03 in 2.0 mi Calm Calm - N/A   Overcast
6:54 AM 61.0 °F 60.1 °F 97% 30.07 in 2.0 mi Calm Calm - N/A   Overcast
7:15 AM 60.8 °F 60.8 °F 100% 30.04 in 1.2 mi West 4.6 mph - 0.00 in Rain Light Rain
7:44 AM 60.8 °F 60.8 °F 100% 30.04 in 2.0 mi Calm Calm - 0.01 in   Overcast
7:54 AM 61.0 °F 60.1 °F 97% 30.08 in 1.8 mi Calm Calm - 0.01 in   Overcast
8:10 AM 60.8 °F 60.8 °F 100% 30.05 in 2.0 mi Calm Calm - N/A   Overcast
8:46 AM 60.8 °F 60.8 °F 100% 30.06 in 5.0 mi Calm Calm - N/A   Overcast
8:54 AM 62.1 °F 60.1 °F 93% 30.09 in 6.0 mi NW 3.5 mph - N/A   Overcast
9:29 AM 62.6 °F 60.8 °F 94% 30.06 in 10.0 mi WNW 4.6 mph - N/A   Overcast
9:44 AM 62.6 °F 60.8 °F 94% 30.06 in 10.0 mi Calm Calm - N/A   Overcast
9:54 AM 63.0 °F 60.1 °F 90% 30.10 in 10.0 mi NW 3.5 mph - N/A   Overcast
10:08 AM 64.4 °F 60.8 °F 88% 30.06 in 10.0 mi West 4.6 mph - N/A   Overcast
10:25 AM 64.4 °F 59.0 °F 83% 30.06 in 10.0 mi Variable 3.5 mph - N/A   Overcast
10:54 AM 64.9 °F 59.0 °F 81% 30.10 in 10.0 mi NNW 3.5 mph - N/A   Overcast
11:54 AM 68.0 °F 59.0 °F 73% 30.09 in 10.0 mi Variable 5.8 mph - N/A   Overcast
12:54 PM 72.0 °F 57.9 °F 61% 30.08 in 10.0 mi WSW 11.5 mph 17.3 mph N/A   Scattered Clouds
1:54 PM 72.0 °F 57.9 °F 61% 30.06 in 10.0 mi SSW 15.0 mph 23.0 mph N/A   Clear
3:54 PM 70.0 °F 59.0 °F 68% 30.05 in 10.0 mi WSW 16.1 mph 21.9 mph N/A   Clear
4:54 PM 69.1 °F 57.9 °F 68% 30.03 in 10.0 mi SW 13.8 mph 23.0 mph N/A   Clear
5:54 PM 69.1 °F 57.0 °F 65% 30.04 in 10.0 mi SW 12.7 mph 20.7 mph N/A   Clear
6:54 PM 66.9 °F 57.0 °F 70% 30.04 in 10.0 mi West 9.2 mph - N/A   Clear
7:54 PM 64.9 °F 55.9 °F 73% 30.04 in 10.0 mi Variable 6.9 mph - N/A   Clear
8:54 PM 63.0 °F 55.9 °F 78% 30.04 in 10.0 mi West 5.8 mph - N/A   Clear
9:54 PM 62.1 °F 55.9 °F 80% 30.06 in 10.0 mi WSW 3.5 mph - N/A   Clear
10:54 PM 62.1 °F 55.0 °F 78% 30.06 in 10.0 mi Calm Calm - N/A   Clear
11:54 PM 61.0 °F 55.0 °F 81% 30.06 in 10.0 mi East 4.6 mph - N/A   Clear